Current weather by "City, St" or "zip code"  
 
Advertise Here

Current Conditions: Lt. William M. Milliken Airport, KS

Overcast


41.0 F

Last Updated on Feb 28 2021, 6:55 am CST
Humidity: 87%
Wind Speed: N 13.8 mph
Barometer 29.88 in
Dewpoint: 37.4 F
Visibility: 10.00 mi
Precip: --
Heat Index: NA
Wind Chill: 33 F
Current conditions at:

Lt. William M. Milliken Airport, KS (K13K)

Lat: 37.85161 Lon: 96.29202

Local Radar Image active severe weather and emergency alerts image image weather storm and storm spotter reports image weather observation monitoring service image
Local
Radar
Active
Alerts
Storm Reports Obs
Monitoring

Sign-up For Email & Text Message Weather Alert Notification Services


Advertise Here

Observation History for Lt. William M. Milliken Airport, KS


Time Wind
(mph)
Vis
(mi)
Weather Precip (in) Temperature (F) Relative
Humidity
Wind
Chill
(F)
Heat
Index
(F)
Pressure
Air Dwpt altimeter
(in)
sea level
(mb)
Rmks
6:55 am CST N 13.8 10.00 Overcast -- 41.0 37.4 87% 33 NA 29.88 M
5:55 am CST NW 12.7 10.00 Overcast -- 43.0 39.0 86% 36 NA 29.86 M
5:35 am CST NW 12.7 10.00 Overcast -- 44.0 39.4 85% 38 NA 29.85 M
4:55 am CST NW 16.1 10.00 Fair -- 44.0 40.5 87% 37 NA 29.82 M
4:35 am CST NW 15.0 10.00 Fair -- 45.0 41.5 88% 38 NA 29.81 M
3:55 am CST NW 18.4 10.00 Fair -- 47.0 44.2 91% 40 NA 29.79 M
2:55 am CST W 8.1 1.50 Light Rain Fog/Mist -- 53.0 52.3 99% 50 NA 29.77 M
1:55 am CST SW 6.9 5.00 Light Drizzle Fog/Mist -- 53.0 52.5 99% 51 NA 29.77 M
1:35 am CST SW 6.9 4.00 Fog/Mist -- 53.0 52.9 99% 51 NA 29.77 M
12:55 am CST S 3.5 2.50 Fog/Mist -- 53.0 52.7 99% NA NA 29.75 M
11:55 pm CST W 6.9 4.00 Fog/Mist -- 52.0 51.3 97% 50 NA 29.77 M
11:35 pm CST S 9.2 5.00 Fog/Mist -- 52.0 50.9 96% 49 NA 29.74 M
10:50 pm CST S 16.1 10.00 Overcast -- 54.0 49.1 85% 50 NA 29.74 M
9:55 pm CST S 18.4 10.00 Overcast -- 54.0 47.8 80% 49 NA 29.73 M
8:55 pm CST S 15.0 10.00 Overcast -- 54.0 45.5 72% 50 NA 29.74 M
8:35 pm CST S 11.5 10.00 Overcast -- 55.0 45.5 72% 52 NA 29.74 M
7:55 pm CST S 19.6 10.00 Overcast -- 55.0 44.6 69% 50 NA 29.73 M
7:35 pm CST S 18.4 G 27.6 10.00 Overcast -- 56.0 43.2 63% 52 NA 29.73 M
6:55 pm CST SE 20.7 G 24.2 10.00 Overcast and Breezy -- 57.0 40.8 54% 53 NA 29.73 M
5:55 pm CST S 19.6 10.00 Overcast -- 59.0 40.3 50% 55 NA 29.73 M
4:55 pm CST SE 21.9 G 27.6 10.00 Overcast and Breezy -- 61.0 38.7 44% 58 NA 29.73 M
4:35 pm CST SE 20.7 10.00 Overcast and Breezy -- 62.0 38.3 42% 59 NA 29.73 M
3:55 pm CST S 26.5 G 33.4 10.00 Mostly Cloudy and Windy -- 63.0 38.3 40% 60 NA 29.74 M
2:55 pm CST S 20.7 G 26.5 10.00 Partly Cloudy and Breezy -- 65.0 39.2 39% NA NA 29.76 M

Regional Weather Observation


Emporia, Emporia Municipal Airport, KS (KEMP)

A Few Clouds
38.0 F

El Dorado Captain Jack Thomas Airport, KS (KEQA)

Fair
37.0 F

Newton, Newton City/County Airport, KS (KEWK)

Fair
31.0 F

Benton Lloyd Stearman Field, KS (K1K1)

Fair
35.0 F

Coffey County Airport, KS (KUKL)

Mostly Cloudy
41.0 F

Augusta Municipal Airport, KS (K3AU)

Fair
36.0 F
Advertise Here

Advertise Here